Flag for Germany Weather past 2 weeks in Zwickau, Saxony, Germany

Now
36 °F

Light rain. Low clouds.


Feels Like: 28 °F
Forecast: 36 / 41 °F
Wind: 10 mph from South

Location: Gera-Leumnitz

Current Time: Mar 31, 2015 at 8:05:02 AM

Latest Report: Mar 31, 2015 at 7:00 AM


Visibility: 7 mi

Pressure: 29.32 "Hg

Humidity: 92%

Dew point: 34 °F

Location of ZwickauLocation

Historic Weather in Zwickau — Graph

°F

Zwickau temperature yesterday

Maximum temperature yesterday: 47 °F (at 4:00 PM)
Minimum temperature yesterday: 36 °F (at 7:00 PM)
Average temperature yesterday: 42 °F

Past Weeks' High & Low Weather Summary

 TemperatureHumidityPressure
High64 °F (Mar 25, 3:00 PM)97% (Mar 22, 1:00 AM)30.38 "Hg (Mar 22, 1:00 AM)
Low25 °F (Mar 23, 5:00 AM)29% (Mar 20, 4:00 PM)29.23 "Hg (Mar 29, 11:00 PM)
Average42 °F73%30.01 "Hg
* Reported Mar 16 6:00 AM — Mar 31 7:00 AM, Zwickau, Weather by CustomWeather, © 2015

Note: Actual official high and low records may vary slightly from our data, if they occured in-between our weather recording intervals... More about our weather records

Advertising

Zwickau weather history for previous 24 hours

 ConditionsComfort  
Time TempWeatherWind HumidityBarometerVisibility
7:00 AM
Tue, Mar 31
36 °FLight rain. Low clouds.10 mph92%29.32 "Hg7 mi
6:00 AM33 °FSnow. Low clouds.9 mph97%29.41 "Hg1 mi
5:00 AM33 °FSnow. Low clouds.7 mph93%29.54 "Hg1 mi
4:00 AM37 °FPassing clouds.8 mph74%29.64 "Hg22 mi
3:00 AM37 °FPassing clouds.7 mph71%29.71 "Hg28 mi
2:00 AM37 °FOvercast.7 mph73%29.77 "Hg28 mi
1:00 AM37 °FOvercast.7 mph70%29.79 "Hg31 mi
12:00 AM36 °FOvercast.8 mph73%29.81 "Hg34 mi
11:00 PM
Mon, Mar 30
37 °FClear.8 mph73%29.81 "Hg37 mi
10:00 PM37 °FPassing clouds.7 mph76%29.81 "Hg43 mi
9:00 PM38 °FPassing clouds.7 mph76%29.80 "Hg43 mi
8:00 PM38 °FPassing clouds.9 mph72%29.75 "Hg43 mi
7:00 PM36 °FSprinkles. Overcast.9 mph90%29.73 "Hg34 mi
6:00 PM42 °FPartly sunny.9 mph71%29.67 "Hg47 mi
5:00 PM43 °FPartly sunny.10 mph67%29.62 "Hg40 mi
4:00 PM47 °FPartly sunny.16 mph52%29.58 "Hg47 mi
3:00 PM44 °FPartly sunny.13 mph60%29.56 "Hg37 mi
2:00 PM46 °FPartly sunny.14 mph55%29.50 "Hg40 mi
1:00 PM37 °FLight mixture of precip. Overcast.17 mph81%29.53 "Hg19 mi
12:00 PM44 °FOvercast.14 mph52%29.44 "Hg47 mi
11:00 AM43 °FOvercast.15 mph57%29.44 "Hg47 mi
10:00 AM42 °FPartly sunny.17 mph60%29.41 "Hg47 mi
9:00 AM41 °FScattered clouds.13 mph71%29.41 "Hg47 mi
8:00 AM40 °FScattered clouds.10 mph80%29.38 "Hg34 mi
Weather by CustomWeather, © 2015

See weather overviewHow to use our weather pages